Location: Alfortville
(48.8058°N, 2.4204°E)
Time: 00:38:22
(UTC+00:00)

Meteor 1-19 Rocket - Visible Passes

Search period start: 07 December 2023 00:00
Search period end: 17 December 2023 00:00
Orbit: 809 x 924 km, 81.2° (Epoch: 06 December)

Date Brightness Start Highest point End Pass type
(mag) Time Alt. Az. Time Alt. Az. Time Alt. Az.
07 Dec 6.9 04:34:57 10° NNE 04:38:09 15° NE 04:41:20 10° E visible
07 Dec 4.7 06:16:37 10° N 06:22:39 72° ENE 06:28:32 10° SSE visible
08 Dec 7.0 04:27:49 10° NNE 04:31:04 15° NE 04:34:16 10° E visible
08 Dec 4.6 06:09:30 10° N 06:15:33 72° ENE 06:21:25 10° SSE visible
09 Dec 7.0 04:20:41 10° NNE 04:23:58 15° NE 04:27:12 10° E visible
09 Dec 4.6 06:02:24 10° N 06:08:26 73° ENE 06:14:18 10° SSE visible
10 Dec 7.0 04:13:33 10° NNE 04:16:52 15° NE 04:20:08 10° E visible
10 Dec 4.6 05:55:18 10° N 06:01:20 74° ENE 06:07:11 10° SSE visible
11 Dec 7.0 04:06:26 10° NNE 04:09:46 15° NE 04:13:04 10° E visible
11 Dec 4.5 05:48:12 10° N 05:54:13 75° ENE 06:00:03 10° SSE visible
11 Dec 6.2 19:03:47 10° S 19:05:05 17° S 19:05:05 17° S visible
12 Dec 6.9 03:59:18 10° NNE 04:02:40 15° NE 04:06:00 10° E visible
12 Dec 4.5 05:41:05 10° N 05:47:07 76° ENE 05:52:56 10° SSE visible
12 Dec 5.6 18:56:39 10° S 18:59:23 29° S 18:59:23 29° S visible
13 Dec 6.9 03:52:11 10° NNE 03:55:34 15° NE 03:58:55 10° E visible
13 Dec 4.5 05:33:59 10° N 05:40:00 77° ENE 05:45:49 10° SSE visible
13 Dec 6.2 17:10:47 10° ESE 17:11:16 11° E 17:11:16 11° E visible
13 Dec 4.8 18:49:31 10° S 18:53:43 48° S 18:53:43 48° S visible
13 Dec 6.9 20:34:53 10° WSW 20:36:10 15° W 20:36:10 15° W visible
14 Dec 6.9 03:45:03 10° NNE 03:48:28 15° NE 03:51:50 10° E visible
14 Dec 4.4 05:26:53 10° N 05:32:53 77° ENE 05:38:42 10° SSE visible
14 Dec 6.0 17:03:35 10° ESE 17:05:34 13° E 17:05:34 13° E visible
14 Dec 4.2 18:42:25 10° S 18:48:00 73° SE 18:48:00 73° SE visible
14 Dec 6.6 20:27:49 10° WSW 20:30:27 19° W 20:30:27 19° W visible
15 Dec 6.9 03:37:56 10° NNE 03:41:22 16° NE 03:44:46 10° E visible
15 Dec 4.4 05:19:47 10° N 05:25:47 78° ENE 05:31:34 10° SSE visible
15 Dec 5.9 16:56:22 10° ESE 16:59:00 13° E 16:59:49 13° ENE visible
15 Dec 4.2 18:35:17 10° S 18:41:13 76° E 18:42:16 61° NE visible
15 Dec 6.5 20:20:44 10° WSW 20:24:43 21° WNW 20:24:43 21° WNW visible
16 Dec 6.9 03:30:48 10° NNE 03:34:16 16° NE 03:37:41 10° E visible
16 Dec 4.4 05:12:40 10° N 05:18:40 79° ENE 05:24:26 10° SSE visible
16 Dec 5.7 06:57:21 10° NW 07:01:11 18° W 07:04:56 10° WSW visible
16 Dec 5.9 16:49:11 10° ESE 16:51:52 13° E 16:54:01 11° ENE visible
16 Dec 4.2 18:28:10 10° S 18:34:06 77° E 18:36:27 39° NNE visible
16 Dec 6.5 20:13:39 10° WSW 20:18:07 21° WNW 20:18:54 21° NW visible
